[[{"header":{"parameterUnit":"m.s-1","parameterCategory":1,"la1":30.2992,"la2":30.254,"lo1":-89.0895,"lo2":-89.0443,"dy":0.0025,"dx":0.0025,"nx":19,"ny":19,"refTime":"2026-04-21T03:00:00:Z","depth":0,"parameterNumber":2,"parameterNumberName":"U-component_of_WINDS"},"data":[0,0,0,-6.4587,-6.459,-6.4674,-6.4674,-6.4822,-6.4824,0,0,0,0,0,0,0,0,0,0,0,-6.4587,-6.4589,-6.4587,-6.459,-6.4674,-6.4674,-6.4822,-6.4824,0,0,0,0,0,0,0,0,0,0,0,-6.4586,-6.4588,-6.4591,-6.459,-6.4674,-6.4674,-6.4822,-6.4744,0,0,0,0,0,0,0,0,0,0,-6.4655,-6.4679,-6.4588,-6.4591,-6.4591,-6.4674,-6.4674,-6.4739,-6.4748,-6.4802,0,-6.4856,0,-6.4842,-6.4836,-6.4837,0,0,0,-6.4571,-6.4671,-6.4672,-6.4591,-6.4592,-6.4674,-6.4631,-6.4744,-6.4755,-6.4814,-6.4857,-6.4862,-6.4845,-6.4838,-6.4839,-6.5207,-6.521,0,0,-6.4567,-6.4616,-6.4665,-6.468,-6.4669,-6.4628,-6.4634,-6.475,-6.48,-6.4858,-6.4864,-6.4847,-6.4839,-6.484,-6.5205,-6.5208,0,0,0,-6.4566,-6.4613,-6.4609,-6.4675,-6.4687,-6.4631,-6.4637,-6.4794,-6.4789,-6.4866,-6.4849,-6.484,-6.4842,-6.5202,-6.5206,-6.5381,0,0,0,-6.4562,-6.4612,-6.4609,-6.4639,-6.4686,-6.4742,-6.468,-6.4781,-6.4793,-6.4848,-6.484,-6.4844,-6.5199,-6.5204,-6.537,-6.5455,0,0,0,-6.4573,-6.4613,-6.4634,-6.4642,-6.468,-6.4739,-6.474,-6.4782,-6.4784,-6.4837,-6.4845,-6.5197,-6.5203,-6.536,-6.5439,-6.5566,0,0,0,-6.4599,-6.4789,-6.4638,-6.4843,-6.4679,-6.4847,-6.4738,-6.486,-6.4927,-6.4841,-6.5199,-6.5206,-6.5357,-6.5429,-6.5556,-6.5682,-6.5739,0,0,-6.4865,-6.4822,-6.4939,-6.4807,-6.5014,-6.483,-6.5062,-6.5077,-6.5038,-6.5153,-6.5161,-6.5374,-6.5438,-6.5564,-6.6043,-6.6089,0,0,0,-6.504,-6.5125,-6.5169,-6.5235,-6.5252,-6.5272,-6.5247,-6.5252,-6.5348,-6.5107,-6.5453,-6.5489,-6.5562,-6.5619,-6.5658,-6.5717,-6.5235,-6.5234,-6.5233,-6.5487,-6.5426,-6.5616,-6.5566,-6.5632,-6.5603,-6.5651,-6.5654,-6.5573,-6.5656,-6.569,-6.5988,-6.6058,-6.6086,-6.6148,-6.5752,-6.5753,-6.5753,-6.5754,-6.5871,-6.5981,-6.587,-6.6014,-6.595,-6.607,-6.6051,-6.599,-6.6093,-6.5957,-6.6018,-6.5875,-6.6138,-6.6189,-6.5766,-6.5764,-6.5762,-6.5761,-6.576,-6.6156,-6.6198,-6.6202,-6.6291,-6.6367,-6.631,-6.6414,-6.6351,-6.6293,-6.6353,-6.6381,-6.6378,-6.6367,-6.6371,-6.6372,-6.6373,-6.6374,-6.6375,-6.6375,-6.6449,-6.6448,-6.6543,-6.6577,-6.6611,-6.6649,-6.6623,-6.6655,-6.6675,-6.6621,-6.6621,-6.6533,-6.6176,-6.6087,-6.6391,-6.6388,-6.6386,-6.6385,-6.6384,-6.6859,-6.6757,-6.6904,-6.6938,-6.6973,-6.7053,-6.6972,-6.7043,-6.7061,-6.7114,-6.7013,-6.676,-6.6711,-6.668,-6.6606,-6.7026,-6.7026,-6.7026,-6.7026,-6.7099,-6.7068,-6.7204,-6.7264,-6.7315,-6.7257,-6.7426,-6.7409,-6.7375,-6.7382,-6.7312,-6.7209,-6.718,-6.7149,-6.7107,-6.7037,-6.7557,-6.7558,-6.7558,-6.7347,-6.7319,-6.7474,-6.7439,-6.7462,-6.7484,-6.764,-6.7713,-6.7653,-6.7579,-6.7386,-6.7364,-6.7196,-6.7145,-6.7065,-6.7002,-6.6872,0,0]},{"header":{"parameterUnit":"m.s-1","parameterCategory":1,"la1":30.2992,"la2":30.254,"lo1":-89.0895,"lo2":-89.0443,"dy":0.0025,"dx":0.0025,"nx":19,"ny":19,"refTime":"2026-04-21T03:00:00:Z","depth":0,"parameterNumber":3,"parameterNumberName":"V-component_of_WINDS"},"data":[0,0,0,2.5556,2.5556,2.5552,2.5552,2.5563,2.5564,0,0,0,0,0,0,0,0,0,0,0,2.5567,2.5568,2.5556,2.5556,2.5552,2.5552,2.5563,2.5564,0,0,0,0,0,0,0,0,0,0,0,2.5567,2.5567,2.5568,2.5557,2.5552,2.5552,2.5563,2.5561,0,0,0,0,0,0,0,0,0,0,2.5562,2.5581,2.5567,2.5568,2.5557,2.5552,2.5552,2.556,2.5561,2.5572,0,2.5585,0,2.5575,2.5566,2.5566,0,0,0,2.5549,2.5581,2.5571,2.5568,2.5557,2.5552,2.5552,2.556,2.5561,2.5573,2.5585,2.5585,2.5575,2.5566,2.5566,2.5657,2.5658,0,0,2.5549,2.5571,2.5571,2.5572,2.5573,2.5552,2.5552,2.5561,2.5575,2.5585,2.5585,2.5575,2.5566,2.5566,2.5656,2.5657,0,0,0,2.5555,2.5572,2.5562,2.5572,2.557,2.5552,2.5552,2.5574,2.5569,2.5585,2.5575,2.5566,2.5566,2.5656,2.5657,2.5717,0,0,0,2.5555,2.5575,2.5562,2.5576,2.557,2.5572,2.5566,2.5569,2.5569,2.5575,2.5566,2.5567,2.5655,2.5656,2.5713,2.5742,0,0,0,2.5564,2.5576,2.5579,2.5577,2.5576,2.5571,2.5566,2.5568,2.5563,2.5566,2.5567,2.5654,2.5656,2.571,2.5737,2.5774,0,0,0,2.558,2.5631,2.558,2.5633,2.5576,2.5608,2.5566,2.5589,2.5598,2.5566,2.5655,2.5657,2.5709,2.5733,2.5771,2.581,2.5828,0,0,2.5657,2.5641,2.5671,2.5625,2.5672,2.5607,2.5663,2.565,2.563,2.5649,2.5651,2.5715,2.5736,2.5773,2.592,2.5934,0,0,0,2.5703,2.5724,2.5732,2.5742,2.5734,2.573,2.5706,2.5702,2.5718,2.5645,2.5737,2.5749,2.577,2.5787,2.58,2.5817,2.5665,2.5665,2.5665,2.5842,2.5815,2.5863,2.5835,2.5846,2.5822,2.5828,2.5818,2.5786,2.5808,2.5814,2.5906,2.5928,2.5937,2.5955,2.5832,2.5832,2.5832,2.5832,2.5953,2.598,2.5938,2.5969,2.5941,2.5966,2.5946,2.5923,2.5944,2.5899,2.5916,2.5871,2.5954,2.5969,2.5836,2.5836,2.5835,2.5835,2.5834,2.6043,2.6051,2.6045,2.6058,2.6072,2.6042,2.6065,2.6037,2.601,2.6027,2.6031,2.603,2.6027,2.6031,2.6031,2.6032,2.6032,2.6032,2.6032,2.6138,2.613,2.6152,2.615,2.6153,2.6155,2.6133,2.6136,2.6133,2.6111,2.6111,2.6078,2.5967,2.594,2.6037,2.6036,2.6036,2.6035,2.6035,2.6263,2.623,2.6265,2.627,2.6265,2.6282,2.6246,2.6255,2.6254,2.6267,2.623,2.6152,2.6134,2.6124,2.6102,2.6235,2.6235,2.6235,2.6235,2.6339,2.6328,2.6358,2.6367,2.6372,2.6344,2.6386,2.637,2.6348,2.6346,2.6323,2.6291,2.6282,2.6269,2.6256,2.6235,2.6399,2.6399,2.6399,2.6415,2.6403,2.6444,2.6422,2.6417,2.6414,2.6453,2.6466,2.6434,2.6405,2.6345,2.6338,2.6286,2.627,2.624,2.622,2.6181,0,0]}]]